This is the latest recevied weather packets stored in our database for station/object XQ6AK-15. If no packets are shown the sender has not sent any weather packets the latest 10 day(s).
| Time | Temp. | Humidity | Pressure | Rain* | Wind** | Luminosity | Snow |
|---|---|---|---|---|---|---|---|
| 1777578137 | 12.78° C | 93% | 1008.7 hPa | 0 mm | - | 48 W/m² | - |
| 1777577833 | 12.78° C | 91% | 1008.9 hPa | 0 mm | - | 49 W/m² | - |
| 1777577529 | 13.33° C | 90% | 1008.6 hPa | 0 mm | - | 66 W/m² | - |
| 1777577226 | 12.78° C | 91% | 1008.7 hPa | 0 mm | - | 50 W/m² | - |
| 1777576922 | 13.33° C | 91% | 1008.6 hPa | 0 mm | - | 75 W/m² | - |
| 1777576617 | 13.33° C | 92% | 1008.7 hPa | 0 mm | - | 124 W/m² | - |
| 1777576312 | 13.33° C | 91% | 1008.6 hPa | 0 mm | - | 130 W/m² | - |
| 1777576009 | 13.33° C | 92% | 1008.8 hPa | 0 mm | - | 141 W/m² | - |
| 1777575704 | 12.78° C | 92% | 1008.7 hPa | 0 mm | - | 180 W/m² | - |
| 1777575395 | 13.33° C | 91% | 1008.6 hPa | 0 mm | - | 184 W/m² | - |
| 1777575091 | 13.89° C | 91% | 1008.7 hPa | 0 mm | - | 173 W/m² | - |
| 1777574787 | 12.78° C | 95% | 1008.8 hPa | 0 mm | - | 439 W/m² | - |
| 1777574485 | 12.78° C | 95% | 1008.8 hPa | 0 mm | - | 81 W/m² | - |
| 1777574180 | 12.78° C | 94% | 1008.7 hPa | 0 mm | - | 123 W/m² | - |
| 1777573870 | 12.78° C | 93% | 1008.7 hPa | 0 mm | - | 155 W/m² | - |
| 1777573565 | 12.78° C | 93% | 1008.9 hPa | 0 mm | - | 150 W/m² | - |
| 1777573262 | 12.22° C | 93% | 1008.9 hPa | 0 mm | - | 125 W/m² | - |
| 1777572958 | 12.22° C | 93% | 1008.9 hPa | 0 mm | - | 130 W/m² | - |
| 1777572654 | 12.22° C | 92% | 1009 hPa | 0 mm | - | 75 W/m² | - |
| 1777572353 | 12.22° C | 92% | 1009.1 hPa | 0 mm | - | 89 W/m² | - |
| 1777572050 | 12.78° C | 91% | 1008.9 hPa | 0 mm | - | 134 W/m² | - |
| 1777571750 | 12.78° C | 91% | 1009.1 hPa | 0 mm | - | 161 W/m² | - |
| 1777571448 | 12.78° C | 92% | 1009.1 hPa | 0 mm | - | 269 W/m² | - |
| 1777571144 | 12.22° C | 92% | 1009.1 hPa | 0 mm | - | 272 W/m² | - |
| 1777570840 | 12.22° C | 92% | 1009.3 hPa | 0 mm | - | 114 W/m² | - |
* Rain latest hour (hover to see other rain measurements)
** Current wind speed in m/s (hover to see current wind gust speed)